Location: Unspecified
(49.2170°N, 0.0000°E)
Time: 13:06:34
(UTC+00:00)

Vanguard 3 - Pass Details

Date: 29 June 2019
Orbit: 507 x 3264 km, 33.4° (Epoch: 22 July)

Event Time Altitude Azimuth Distance (km) Brightness Sun altitude
Rises 12:07:39 0° 258° (WSW) 6,611 11.9 64.0°
Reaches altitude 10° 12:13:09 10° 250° (WSW) 5,193 11.5 63.9°
Maximum altitude 12:24:41 32° 196° (SSW) 2,703 11.0 63.7°
Drops below altitude 10° 12:31:59 10° 136° (SE) 3,236 10.6 63.4°
Sets 12:34:34 0° 126° (SE) 3,889 10.8 63.3°
